• en France
  • Liste des pays
  • À 7 jours
  • Température de l'eau
  • Carte satellitaire
  • Carte météo
  • Widgets météo
  • user-avatar
    Se connecter

    Météo par heure à Río Galyegos

    Ce jour, 25 Septembre, Mardi

    Heure Température Précipitation Vent Pression Humidité
    00:00 +2°C° 0 mm 3 m/s 760 mmHg 67%
    01:00 +1°C° 0 mm 3 m/s 759 mmHg 69%
    02:00 +2°C° 0 mm 2 m/s 759 mmHg 69%
    03:00 +2°C° 0 mm 2 m/s 759 mmHg 70%
    04:00 +2°C° 0 mm 2 m/s 759 mmHg 71%
    05:00 +3°C° 0 mm 1 m/s 760 mmHg 67%
    06:00 +4°C° 0 mm 1 m/s 760 mmHg 63%
    07:00 +5°C° 0 mm 1 m/s 760 mmHg 59%
    08:00 +6°C° 0 mm 1 m/s 760 mmHg 55%
    09:00 +7°C° 0 mm 1 m/s 760 mmHg 51%
    10:00 +8°C° 0 mm 1 m/s 760 mmHg 48%
    11:00 +8°C° 0 mm 1 m/s 760 mmHg 46%
    12:00 +8°C° 0 mm 1 m/s 761 mmHg 45%
    13:00 +9°C° 0 mm 1 m/s 761 mmHg 43%
    14:00 +8°C° 0 mm 2 m/s 761 mmHg 44%
    15:00 +8°C° 0 mm 2 m/s 761 mmHg 44%
    16:00 +8°C° 0 mm 2 m/s 761 mmHg 45%
    17:00 +7°C° 0 mm 2 m/s 762 mmHg 51%
    18:00 +6°C° 0 mm 2 m/s 762 mmHg 56%
    19:00 +4°C° 0 mm 3 m/s 763 mmHg 61%
    20:00 +4°C° 0 mm 3 m/s 763 mmHg 64%
    21:00 +3°C° 0 mm 3 m/s 763 mmHg 66%
    22:00 +3°C° 0 mm 3 m/s 764 mmHg 68%
    23:00 +3°C° 0 mm 3 m/s 764 mmHg 68%

    Demain, 26 Septembre, Mercredi

    Heure Température Précipitation Vent Pression Humidité
    00:00 +3°C° 0 mm 3 m/s 764 mmHg 69%
    01:00 +3°C° 0 mm 3 m/s 764 mmHg 69%
    02:00 +2°C° 0 mm 3 m/s 764 mmHg 70%
    03:00 +2°C° 0 mm 3 m/s 765 mmHg 70%
    04:00 +2°C° 0 mm 3 m/s 765 mmHg 71%
    05:00 +3°C° 0 mm 4 m/s 765 mmHg 71%
    06:00 +3°C° 0 mm 4 m/s 765 mmHg 70%
    07:00 +4°C° 0 mm 4 m/s 765 mmHg 69%
    08:00 +5°C° 0 mm 4 m/s 765 mmHg 65%
    09:00 +6°C° 0 mm 5 m/s 765 mmHg 61%
    10:00 +8°C° 0 mm 5 m/s 765 mmHg 57%
    11:00 +8°C° 0 mm 5 m/s 765 mmHg 53%
    12:00 +9°C° 0 mm 5 m/s 764 mmHg 49%
    13:00 +10°C° 0 mm 5 m/s 764 mmHg 45%
    14:00 +10°C° 0 mm 5 m/s 763 mmHg 44%
    15:00 +10°C° 0 mm 5 m/s 763 mmHg 42%
    16:00 +10°C° 0 mm 5 m/s 763 mmHg 41%
    17:00 +9°C° 0 mm 5 m/s 763 mmHg 46%
    18:00 +8°C° 0 mm 5 m/s 763 mmHg 50%
    19:00 +6°C° 0 mm 4 m/s 763 mmHg 55%
    20:00 +6°C° 0 mm 4 m/s 762 mmHg 56%
    21:00 +6°C° 0 mm 4 m/s 762 mmHg 57%
    22:00 +5°C° 0 mm 4 m/s 762 mmHg 58%
    23:00 +5°C° 0 mm 4 m/s 761 mmHg 58%

    Après-demain, 27 Septembre, Jeudi

    Heure Température Précipitation Vent Pression Humidité
    00:00 +5°C° 0 mm 4 m/s 761 mmHg 58%
    01:00 +4°C° 0 mm 4 m/s 760 mmHg 59%
    02:00 +4°C° 0 mm 4 m/s 760 mmHg 62%
    03:00 +4°C° 0 mm 4 m/s 759 mmHg 65%
    04:00 +3°C° 0 mm 5 m/s 759 mmHg 68%
    05:00 +3°C° 0 mm 6 m/s 758 mmHg 68%
    06:00 +4°C° 0 mm 6 m/s 758 mmHg 68%
    07:00 +4°C° 0 mm 7 m/s 757 mmHg 68%
    08:00 +6°C° 0 mm 8 m/s 757 mmHg 62%
    09:00 +7°C° 0 mm 8 m/s 756 mmHg 55%
    10:00 +10°C° 0 mm 9 m/s 755 mmHg 49%
    11:00 +11°C° 0 mm 8 m/s 754 mmHg 44%
    12:00 +11°C° 0 mm 8 m/s 754 mmHg 40%
    13:00 +12°C° 0 mm 8 m/s 753 mmHg 35%
    14:00 +12°C° 0 mm 7 m/s 752 mmHg 34%
    15:00 +13°C° 0 mm 6 m/s 751 mmHg 33%
    16:00 +13°C° 0 mm 6 m/s 750 mmHg 33%
    17:00 +12°C° 0 mm 5 m/s 750 mmHg 37%
    18:00 +10°C° 0 mm 5 m/s 750 mmHg 41%
    19:00 +8°C° 0 mm 4 m/s 750 mmHg 45%
    20:00 +8°C° 0 mm 4 m/s 749 mmHg 48%
    21:00 +7°C° 0 mm 4 m/s 749 mmHg 51%
    22:00 +6°C° 0 mm 4 m/s 748 mmHg 54%
    23:00 +6°C° 0 mm 4 m/s 748 mmHg 55%

    28 Septembre, Vendredi

    Heure Température Précipitation Vent Pression Humidité
    00:00 +5°C° 0 mm 4 m/s 747 mmHg 55%
    01:00 +5°C° 0 mm 3 m/s 746 mmHg 56%
    02:00 +5°C° 0 mm 3 m/s 746 mmHg 53%
    03:00 +4°C° 0 mm 3 m/s 745 mmHg 50%
    04:00 +4°C° 0 mm 3 m/s 745 mmHg 48%
    05:00 +5°C° 0 mm 3 m/s 744 mmHg 46%
    06:00 +5°C° 0 mm 3 m/s 744 mmHg 45%
    07:00 +7°C° 0 mm 3 m/s 744 mmHg 43%
    08:00 +8°C° 0 mm 3 m/s 743 mmHg 42%
    09:00 +7°C° 0 mm 4 m/s 743 mmHg 41%
    10:00 +8°C° 0 mm 4 m/s 742 mmHg 40%
    11:00 +10°C° 0 mm 4 m/s 742 mmHg 40%
    12:00 +10°C° 0 mm 4 m/s 742 mmHg 40%
    13:00 +10°C° 0 mm 4 m/s 741 mmHg 40%
    14:00 +9°C° 0.1 mm 5 m/s 742 mmHg 45%
    15:00 +8°C° 0.1 mm 6 m/s 742 mmHg 50%
    16:00 +6°C° 0.1 mm 7 m/s 742 mmHg 54%
    17:00 +5°C° 0.2 mm 7 m/s 742 mmHg 56%
    18:00 +4°C° 0.2 mm 7 m/s 743 mmHg 59%
    19:00 +4°C° 0.2 mm 7 m/s 744 mmHg 61%
    20:00 +3°C° 0.1 mm 6 m/s 744 mmHg 60%
    21:00 +3°C° 0.1 mm 6 m/s 744 mmHg 60%
    22:00 +2°C° 0.1 mm 5 m/s 745 mmHg 59%
    23:00 +2°C° 0 mm 5 m/s 745 mmHg 59%

    29 Septembre, Samedi

    Heure Température Précipitation Vent Pression Humidité
    00:00 +1°C° 0 mm 4 m/s 745 mmHg 60%
    01:00 +1°C° 0 mm 4 m/s 745 mmHg 60%
    02:00 0°C° 0 mm 4 m/s 745 mmHg 61%
    03:00 0°C° 0 mm 4 m/s 745 mmHg 63%
    04:00 0°C° 0 mm 4 m/s 745 mmHg 64%
    05:00 0°C° 0 mm 5 m/s 746 mmHg 62%
    06:00 -1°C° 0 mm 6 m/s 746 mmHg 60%
    07:00 -1°C° 0 mm 7 m/s 746 mmHg 58%
    08:00 +1°C° 0 mm 6 m/s 747 mmHg 56%
    09:00 +1°C° 0 mm 6 m/s 747 mmHg 53%
    10:00 +2°C° 0 mm 6 m/s 748 mmHg 51%
    11:00 +3°C° 0 mm 6 m/s 748 mmHg 47%
    12:00 +3°C° 0 mm 6 m/s 748 mmHg 42%
    13:00 +4°C° 0 mm 6 m/s 748 mmHg 38%
    14:00 +4°C° 0 mm 6 m/s 748 mmHg 39%
    15:00 +4°C° 0 mm 6 m/s 748 mmHg 41%
    16:00 +4°C° 0 mm 6 m/s 749 mmHg 42%
    17:00 +3°C° 0.1 mm 5 m/s 750 mmHg 48%
    18:00 +3°C° 0.1 mm 4 m/s 751 mmHg 53%
    19:00 +3°C° 0.1 mm 4 m/s 751 mmHg 59%
    20:00 +1°C° 0 mm 4 m/s 752 mmHg 61%
    21:00 +1°C° 0 mm 4 m/s 752 mmHg 64%
    22:00 0°C° 0 mm 5 m/s 753 mmHg 67%
    23:00 0°C° 0 mm 5 m/s 753 mmHg 67%

    30 Septembre, Dimanche

    Heure Température Précipitation Vent Pression Humidité
    00:00 -1°C° 0 mm 6 m/s 754 mmHg 67%
    01:00 -1°C° 0 mm 7 m/s 754 mmHg 68%
    02:00 -2°C° 0 mm 7 m/s 755 mmHg 68%
    03:00 -2°C° 0 mm 6 m/s 755 mmHg 68%
    04:00 -3°C° 0 mm 6 m/s 755 mmHg 69%
    05:00 -2°C° 0 mm 6 m/s 756 mmHg 66%
    06:00 -2°C° 0 mm 7 m/s 757 mmHg 63%
    07:00 -1°C° 0 mm 7 m/s 757 mmHg 60%
    08:00 +1°C° 0 mm 6 m/s 757 mmHg 56%
    09:00 +1°C° 0 mm 6 m/s 758 mmHg 52%
    10:00 +2°C° 0 mm 6 m/s 758 mmHg 47%
    11:00 +3°C° 0.1 mm 6 m/s 758 mmHg 46%
    12:00 +3°C° 0.1 mm 6 m/s 757 mmHg 45%
    13:00 +3°C° 0.1 mm 6 m/s 757 mmHg 44%
    14:00 +3°C° 0 mm 6 m/s 757 mmHg 44%
    15:00 +3°C° 0 mm 6 m/s 757 mmHg 44%
    16:00 +3°C° 0 mm 7 m/s 757 mmHg 44%
    17:00 +3°C° 0 mm 6 m/s 757 mmHg 48%
    18:00 +2°C° 0 mm 6 m/s 757 mmHg 51%
    19:00 +2°C° 0 mm 6 m/s 757 mmHg 55%
    20:00 0°C° 0 mm 7 m/s 757 mmHg 58%
    21:00 -1°C° 0 mm 7 m/s 757 mmHg 61%
    22:00 -2°C° 0 mm 7 m/s 757 mmHg 63%
    23:00 -2°C° 0 mm 7 m/s 757 mmHg 64%
    Voir plus